GAOFEN-12 01

Last updated on Sun Jul 06 2025 00:02:29 GMT+0000 (Coordinated Universal Time)

1 44819U 19082A 25186.56686980 .00000342 00000+0 51454-4 0 9997 2 44819 97.8130 197.0165 0003976 67.3042 292.8591 14.80420703302800
UTC large
Height (km)
Speed (km/s)
/
Latitude / Longitude
Inclination (degrees)
Orbital Period (minutes)
Azimuth
Elevation
Range (km)
Doppler Factor

Next 0 passes for location: London (51.5072 / 0.1276)

Sorry there are no passes over London.